Hutchinson, MN

1:49 AM CDT on May 29, 2017 (GMT -0500)
Hutchinson Municipal-Butler

Weather History for KHCD - November, 2012

Change the Weather History Date:

Sunday, November 18, 2012

  Actual Average Record
Temperature  
Mean Temperature 49 °F -  
Max Temperature 59 °F 39 °F 61 °F (1979)
Min Temperature 39 °F 23 °F -1 °F (1989)
Degree Days  
Heating Degree Days 16    
Moisture  
Dew Point 37 °F    
Average Humidity 64    
Maximum Humidity 80    
Minimum Humidity 48    
Precipitation  
Precipitation 0.00 in - - ()
Sea Level Pressure  
Sea Level Pressure 30.07 in    
Wind  
Wind Speed 8 mph (SSE)    
Max Wind Speed 16 mph    
Max Gust Speed 20 mph    
Visibility 10 miles    
Events      
Averages and records for this station are not official NWS values.
T = Trace of Precipitation, MM = Missing Value Source: NWS Daily Summary

Daily Weather History Graph

Daily Weather History Graph

Search for Another Location

Airport or City:

Trip Planner

Search our weather history database for the weather conditions in past years. The results will help you decide how hot, cold, wet, or windy it might be!

Date:

Astronomy

Nov. 18, 2012 Rise Set
Actual Time 7:19 AM CST 4:45 PM CST
Civil Twilight 6:47 AM CST 5:17 PM CST
Nautical Twilight 6:11 AM CST 5:53 PM CST
Astronomical Twilight 5:37 AM CST 6:28 PM CST
Moon 11:44 AM CST (11/18) 10:10 PM CST (11/18)
Length of Visible Light 10h 30m
Length of Day
9h 26m
Waxing Crescent, 30% of the Moon is Illuminated
Nov 18
Waxing Crescent
Nov 20
First Quarter
Nov 28
Full
Dec 6
Last Quarter
Dec 13
New

Hourly Weather History & Observations

Time (CST) Temp. Windchill Dew Point Humidity Pressure Visibility Wind Dir Wind Speed Gust Speed Precip Events Conditions
12:09 AM 49.1 °F - 37.4 °F 64% 30.13 in 10.0 mi SSE 8.1 mph 16.1 mph N/A   Mostly Cloudy
12:28 AM 49.1 °F - 37.8 °F 65% 30.13 in 10.0 mi SSE 8.1 mph - N/A   Overcast
12:49 AM 49.1 °F - 37.8 °F 65% 30.13 in 10.0 mi SSE 6.9 mph 16.1 mph N/A   Overcast
1:08 AM 49.1 °F - 37.9 °F 65% 30.13 in 10.0 mi SSE 9.2 mph 17.3 mph N/A   Mostly Cloudy
1:29 AM 49.1 °F - 38.3 °F 66% 30.13 in 10.0 mi SSE 9.2 mph - N/A   Mostly Cloudy
1:48 AM 49.1 °F - 37.9 °F 65% 30.12 in 10.0 mi SSE 6.9 mph - N/A   Overcast
2:09 AM 49.1 °F - 38.1 °F 66% 30.12 in 10.0 mi SSE 9.2 mph - N/A   Overcast
2:29 AM 49.1 °F - 38.1 °F 66% 30.12 in 10.0 mi SSE 6.9 mph - N/A   Overcast
2:49 AM 49.1 °F - 39.0 °F 68% 30.12 in 10.0 mi SSE 6.9 mph - N/A   Mostly Cloudy
3:09 AM 46.6 °F - 37.0 °F 69% 30.11 in 10.0 mi SSE 6.9 mph - N/A   Clear
3:29 AM 46.6 °F - 37.4 °F 70% 30.10 in 10.0 mi SE 8.1 mph - N/A   Clear
3:49 AM 45.9 °F 41.7 °F 36.9 °F 71% 30.10 in 10.0 mi SE 8.1 mph - N/A   Clear
4:08 AM 44.1 °F 39.5 °F 35.6 °F 72% 30.10 in 10.0 mi SE 8.1 mph - N/A   Scattered Clouds
4:29 AM 43.2 °F 39.0 °F 35.1 °F 73% 30.10 in 10.0 mi SE 6.9 mph - N/A   Clear
4:49 AM 42.8 °F 38.0 °F 35.1 °F 74% 30.09 in 10.0 mi SE 8.1 mph - N/A   Clear
5:08 AM 42.1 °F 37.7 °F 34.7 °F 75% 30.09 in 10.0 mi SE 6.9 mph - N/A   Clear
5:29 AM 41.9 °F 36.9 °F 34.7 °F 76% 30.09 in 10.0 mi SE 8.1 mph - N/A   Clear
5:49 AM 41.5 °F 35.9 °F 34.7 °F 77% 30.09 in 10.0 mi SE 9.2 mph - N/A   Clear
6:09 AM 40.8 °F 35.0 °F 34.2 °F 77% 30.08 in 10.0 mi SE 9.2 mph - N/A   Clear
6:28 AM 41.5 °F 37.1 °F 34.3 °F 76% 30.08 in 10.0 mi SE 6.9 mph - N/A   Clear
6:48 AM 39.6 °F 34.7 °F 33.3 °F 78% 30.08 in 10.0 mi SE 6.9 mph - N/A   Clear
7:09 AM 39.2 °F 35.0 °F 33.4 °F 80% 30.08 in 10.0 mi SE 5.8 mph - N/A   Clear
7:27 AM 39.2 °F 35.9 °F 33.1 °F 79% 30.08 in 10.0 mi SE 4.6 mph - N/A   Clear
7:49 AM 40.3 °F 35.5 °F 34.0 °F 78% 30.08 in 10.0 mi SE 6.9 mph - N/A   Clear
8:09 AM 41.9 °F 38.2 °F 34.2 °F 74% 30.08 in 10.0 mi SE 5.8 mph - N/A   Clear
8:26 AM 44.1 °F 40.1 °F 34.9 °F 70% 30.08 in 10.0 mi SSE 6.9 mph - N/A   Clear
8:49 AM 46.6 °F - 36.1 °F 67% 30.08 in 10.0 mi SSE 6.9 mph - N/A   Clear
9:08 AM 48.7 °F - 37.4 °F 65% 30.08 in 10.0 mi SSE 10.4 mph - N/A   Clear
9:29 AM 49.1 °F - 36.7 °F 62% 30.08 in 10.0 mi SSE 9.2 mph - N/A   Clear
9:48 AM 49.1 °F - 36.0 °F 61% 30.08 in 10.0 mi South 10.4 mph 19.6 mph N/A   Clear
10:09 AM 49.1 °F - 35.1 °F 58% 30.08 in 10.0 mi South 16.1 mph 19.6 mph N/A   Clear
10:29 AM 51.6 °F - 36.7 °F 57% 30.08 in 10.0 mi South 13.8 mph 19.6 mph N/A   Clear
10:49 AM 52.3 °F - 37.0 °F 56% 30.08 in 10.0 mi South 13.8 mph 18.4 mph N/A   Clear
11:09 AM 54.1 °F - 38.1 °F 55% 30.07 in 10.0 mi South 10.4 mph 19.6 mph N/A   Clear
11:27 AM 54.1 °F - 37.6 °F 54% 30.06 in 10.0 mi South 11.5 mph 17.3 mph N/A   Clear
11:49 AM 54.1 °F - 37.2 °F 53% 30.05 in 10.0 mi South 11.5 mph 17.3 mph N/A   Clear
12:08 PM 55.0 °F - 37.8 °F 52% 30.05 in 10.0 mi SSE 11.5 mph 16.1 mph N/A   Clear
12:29 PM 56.7 °F - 38.5 °F 51% 30.04 in 10.0 mi South 11.5 mph 18.4 mph N/A   Clear
12:48 PM 56.7 °F - 38.1 °F 50% 30.04 in 10.0 mi South 11.5 mph 17.3 mph N/A   Clear
1:09 PM 57.0 °F - 38.3 °F 50% 30.04 in 10.0 mi South 10.4 mph 18.4 mph N/A   Clear
1:28 PM 59.2 °F - 39.9 °F 49% 30.03 in 10.0 mi SSE 12.7 mph 18.4 mph N/A   Clear
1:48 PM 59.2 °F - 39.9 °F 49% 30.03 in 10.0 mi South 15.0 mph 18.4 mph N/A   Clear
2:00 PM 59.2 °F - 39.4 °F 48% 30.03 in 10.0 mi South 11.5 mph - N/A   Clear
2:30 PM 59.0 °F - 39.2 °F 48% 30.03 in 10.0 mi South 15.0 mph 18.4 mph N/A   Clear
2:50 PM 59.0 °F - 39.2 °F 48% 30.03 in 10.0 mi South 10.4 mph 19.6 mph N/A   Clear
3:10 PM 59.0 °F - 39.2 °F 48% 30.03 in 10.0 mi SSE 8.1 mph - N/A   Clear
3:30 PM 59.0 °F - 39.2 °F 48% 30.03 in 10.0 mi SSE 9.2 mph 16.1 mph N/A   Clear
3:50 PM 57.2 °F - 39.2 °F 51% 30.03 in 10.0 mi SSE 5.8 mph - N/A   Clear
4:10 PM 53.6 °F - 39.2 °F 58% 30.04 in 10.0 mi SSE 3.5 mph - N/A   Clear
4:30 PM 53.6 °F - 39.2 °F 58% 30.04 in 10.0 mi SE 4.6 mph - N/A   Clear
4:50 PM 50.0 °F - 39.2 °F 66% 30.04 in 10.0 mi SE 6.9 mph - N/A   Clear
5:10 PM 48.2 °F - 39.2 °F 71% 30.04 in 10.0 mi SE 5.8 mph - N/A   Clear
5:30 PM 48.2 °F - 39.2 °F 71% 30.04 in 10.0 mi ESE 5.8 mph - N/A   Clear
5:50 PM 48.2 °F - 39.2 °F 71% 30.05 in 10.0 mi ESE 5.8 mph - N/A   Clear
6:10 PM 48.2 °F - 39.2 °F 71% 30.05 in 10.0 mi ESE 6.9 mph - N/A   Clear
6:30 PM 48.2 °F - 39.2 °F 71% 30.04 in 10.0 mi SE 5.8 mph - N/A   Clear
6:50 PM 51.8 °F - 39.2 °F 62% 30.04 in 10.0 mi SSE 6.9 mph - N/A   Clear
7:10 PM 51.8 °F - 39.2 °F 62% 30.05 in 10.0 mi SSE 6.9 mph - N/A   Clear
7:30 PM 51.8 °F - 37.4 °F 58% 30.05 in 10.0 mi SSE 5.8 mph - N/A   Clear
7:50 PM 51.8 °F - 39.2 °F 62% 30.05 in 10.0 mi SSE 6.9 mph - N/A   Clear
7:53 PM 51.4 °F - 38.1 °F 60% 30.05 in 10.0 mi SSE 6.9 mph - N/A   Clear
8:08 PM 50.4 °F - 37.4 °F 61% 30.05 in 10.0 mi SSE 9.2 mph - N/A   Clear
8:29 PM 49.1 °F - 36.9 °F 63% 30.05 in 10.0 mi SSE 5.8 mph - N/A   Clear
8:48 PM 49.8 °F - 37.4 °F 62% 30.05 in 10.0 mi SSE 8.1 mph - N/A   Clear
9:09 PM 50.0 °F - 37.4 °F 62% 30.05 in 10.0 mi South 10.4 mph 16.1 mph N/A   Clear
9:28 PM 49.1 °F - 36.9 °F 63% 30.05 in 10.0 mi South 9.2 mph - N/A   Clear
9:49 PM 49.1 °F - 37.4 °F 64% 30.06 in 10.0 mi SSE 5.8 mph - N/A   Clear
10:08 PM 49.1 °F - 37.8 °F 65% 30.06 in 10.0 mi SSE 6.9 mph - N/A   Clear
10:29 PM 49.1 °F - 37.9 °F 65% 30.05 in 10.0 mi SSE 6.9 mph - N/A   Clear
11:08 PM 49.1 °F - 38.3 °F 66% 30.04 in 10.0 mi SSE 10.4 mph 16.1 mph N/A   Clear
11:29 PM 49.1 °F - 38.3 °F 66% 30.04 in 10.0 mi South 6.9 mph - N/A   Clear
11:49 PM 49.1 °F - 38.7 °F 67% 30.04 in 10.0 mi SSE 6.9 mph - N/A   Clear